Regional Weather Roundup
Issued by NWS

Home | Current Version | Previous Version | Text Only | Print | Product List | Glossary On
Versions: 1 2 3 4 5 6 7 8 9 10 11 12 13 14 15 16 17 18 19 20 21 22 23 24 25 26 27 28 29 30 31 32 33 34 35 36 37 38 39 40 41 42 43 44 45 46 47 48 49 50
510
ASCA44 KEWX 261620
RWRMX

LATIN AMERICA AND CARIBBEAN REGIONAL WEATHER ROUNDUP
NATIONAL WEATHER SERVICE AUSTIN/SAN ANTONIO TX
1000 AM CST SUN FEB 26 2017

NOTE: "FAIR" INDICATED FEW OR NO CLOUDS BELOW 12,000 FEET WITH NO
SIGNIFICANT WEATHER AND/OR OBSTRUCTIONS TO VISIBILITY.

BAJA CALIFORNIA

CITY           SKY/WX    TMP DP  RH WIND       PRES   REMARKS
LORETO           N/A    N/A N/A N/A MISG        N/A
LA PAZ         SUNNY     64  32  29 CALM      30.03R
MEXICALI       PTSUNNY   57  39  51 W23       29.95R
S.J. DEL CABO  SUNNY     66  34  30 CALM      30.02R
TIJUANA        LGT RAIN  52  45  76 CALM      30.07R FOG

NORTHWESTERN MEXICO

CITY           SKY/WX    TMP DP  RH WIND       PRES   REMARKS
CULIACAN       SUNNY     64  59  82 CALM      29.99R
DURANGO        SUNNY     57  32  38 SE6       30.23R
GUAYMAS        PTSUNNY   61  46  59 CALM      29.91R
HERMOSILLO     PTSUNNY   63  37  39 SE8       29.97R
CD. JUAREZ     PTSUNNY   50  27  40 W6        29.91R WCI  48
LOS MOCHIS     SUNNY     63  52  67 NE6       30.00R
OBREGON        PTSUNNY   64  39  39 E5        29.95R

NORTHEASTERN MEXICO

CITY           SKY/WX    TMP DP  RH WIND       PRES   REMARKS
CHIHUAHUA      PTSUNNY   63  10  13 S5        30.05R
MATAMOROS      PTSUNNY   77  68  73 SE15      29.96R
MONCLOVA         N/A    N/A N/A N/A MISG        N/A
MONTERREY      FOG       64  61  88 CALM      29.96S VSB 1
NUEVO LAREDO   CLOUDY    64  59  82 SE3       29.96S
PIEDRAS NEGRAS CLOUDY    55  46  71 E7        29.99  FOG
REYNOSA        PTSUNNY   75  64  69 S6        29.94S
SALTILLO       SUNNY     73  45  35 S12       30.11S
TORREON        SUNNY     64  37  36 CALM      30.07R
CD. VICTORIA   MOSUNNY   73  61  64 SE17      29.96R

WESTERN MEXICO

CITY           SKY/WX    TMP DP  RH WIND       PRES   REMARKS
AGUASCALIENTES SUNNY     61  36  39 SW7       30.29R
COLIMA         SUNNY     72  55  56 E7        30.09R
DEL BAJIO      SUNNY     64  37  36 CALM      30.32R
GUADALAJARA    SUNNY     66  37  34 NE6       30.22R
MANZANILLO     SUNNY     77  68  73 N7        29.94R
MAZATLAN       SUNNY     72  63  73 SE3       30.00R
P. VALLARTA    SUNNY     72  61  68 NE5       29.98R
URUAPAN        SUNNY     64  43  45 CALM      30.23R
ZACATECAS      SUNNY     61  25  25 S12G24    30.28R

CENTRAL MEXICO

CITY           SKY/WX    TMP DP  RH WIND       PRES   REMARKS
CUERNAVACA     SUNNY     75  41  29 CALM      30.18R
MEXICO CITY    SUNNY     66  34  30 SE3       30.33R
MORELIA        SUNNY     63  37  39 E3        30.27R
POZA RICA      PTSUNNY   73  70  88 CALM      30.03R FOG
PUEBLA         SUNNY     61  37  41 SE5       30.35R
QUERETARO      SUNNY     61  37  41 NW5       30.33R
S. LUIS POTOSI SUNNY     66  34  30 SW12      30.21S
TAMPICO        MOSUNNY   77  66  69 SW7       29.99R
TOLUCA         SUNNY     57  32  38 S5        30.41R

SOUTHERN MEXICO

CITY           SKY/WX    TMP DP  RH WIND       PRES   REMARKS
ACAPULCO       SUNNY     82  61  47 N3        29.96R
B. DE HUATULCO SUNNY     82  63  51 CALM      30.03R
OAXACA         SUNNY     70  39  32 CALM      30.26R
P. ESCONDIDO   SUNNY     82  70  65 S6        30.07R
VERACRUZ       MOSUNNY   77  70  78 S7        30.00S
ZIHUATANEJO    SUNNY     81  63  54 SW6       29.97R

YUCATAN PENINSULA

CITY           SKY/WX    TMP DP  RH WIND       PRES   REMARKS
CAMPECHE       SUNNY     82  72  69 SE12      29.97R
CANCUN         PTSUNNY   82  70  65 SE8       30.06R
CHETUMAL       MOSUNNY   82  72  69 SE12      30.02R
CD. DEL CARMEN MOSUNNY   81  72  74 SE8       29.99S
COZUMEL        MOSUNNY   82  66  57 E15       30.03R
MERIDA         SUNNY     84  66  54 E12       30.02S
MINATITLAN     SUNNY     77  68  73 CALM      29.99R
TAPACHULA      MOSUNNY   86  70  58 NW3       29.95R HX  90
TUX. GUTIERREZ SUNNY     75  59  57 N5        30.05S
VILLAHERMOSA   SUNNY     79  68  69 W6        30.02R

CENTRAL AMERICA

CITY           SKY/WX    TMP DP  RH WIND       PRES   REMARKS
BELIZE CITY    MOSUNNY   84  73  70 E7        30.00S HX  91
MANAGUA        MOSUNNY   88  68  51 E14       29.92F HX  91

CARIBBEAN

CITY           SKY/WX    TMP DP  RH WIND       PRES   REMARKS
CURACAO        MOSUNNY   88  73  62 E13       30.00S HX  96
KINGSTON       MOSUNNY   82  70  65 S6        30.03S
NASSAU         MOSUNNY   88  63  42 E7        30.14S
SAN JUAN       MOSUNNY   84  72  65 NE13      30.08F
SANTO DOMINGO  MOSUNNY   86  75  70 S5        30.00F HX  95
ST. CROIX      MOSUNNY   84  72  65 E16       30.06
ST. KITTS      MOSUNNY   82  70  65 NE16      30.06S
ST. MAARTEN    MOSUNNY   84  70  61 E12G26    30.06S
ST. THOMAS     CLOUDY    81  72  74 SE12      30.06

$$





USA.gov is the U.S. government's official web portal to all federal, state and local government web resources and services.